Вернуться в каталог

CZ-4 DEB

АктивенSSO
NORAD 29043·DEBRIS·🇨🇳 China

Запущен Sep 8, 2004 с Taiyuan Satellite Launch Center

Loading…

Ближайшие Пролёты (ближайшие 24 часа)

TLE

СвежийSource: Space-Track

Эпоха: Sep 14, 2026, 07:13 UTC

1 29043U 04035K   26257.30115541  .00001543  00000-0  98466-4 0  9992
2 29043  97.5725 279.1328 0002095 135.8489 224.2908 15.10168661132852

Отслеживайте CZ-4 DEB в реальном времени с AllMySat

Download on the App Store